Regional Weather Roundup
Issued by NWS Little Rock, AR

Home | Current Version | Previous Version | Text Only | Print | Product List | Glossary Off
Versions: 1 2 3 4 5 6 7 8 9 10 11 12 13 14 15 16 17 18 19 20 21 22 23 24 25 26 27 28 29 30 31 32 33 34 35 36 37 38 39 40 41 42 43 44 45

000
ASUS44 KLZK 010705
RWRLZK

WEATHER ROUNDUP FOR ARKANSAS
NATIONAL WEATHER SERVICE LITTLE ROCK AR
200 AM CDT SAT AUG 01 2015

NOTE: "FAIR" INDICATES FEW OR NO CLOUDS BELOW 12,000 FEET WITH NO
SIGNIFICANT WEATHER AND/OR OBSTRUCTIONS TO VISIBILITY.

ARZ001-003-010-029-010800-
NORTHWEST ARKANSAS

CITY           SKY/WX    TMP DP  RH WIND       PRES   REMARKS
FAYETTEVILLE   PTCLDY    65  64  97 CALM      30.11F
FORT SMITH     PTCLDY    74  66  76 NE5       30.05F
HARRISON       PTCLDY    67  63  87 W3        30.11F
BENTONVILLE    PTCLDY    66  61  82 CALM      30.11F
ROGERS         PTCLDY    69  68  96 CALM      30.11F
SILOAM SPGS    MOCLDY    68  61  77 E3        30.09F
HIGHFILL       PTCLDY    67  62  84 CALM      30.11F
$$

ARZ004-005-016-010800-
NORTH CENTRAL ARKANSAS

CITY           SKY/WX    TMP DP  RH WIND       PRES   REMARKS
BATESVILLE     PTCLDY    70  66  88 NW3       30.05F
FLIPPIN        PTCLDY    68  64  88 CALM      30.06F
MTN HOME       PTCLDY    69  67  93 CALM      30.07F
$$

ARZ040-041-010800-
WEST CENTRAL ARKANSAS

CITY           SKY/WX    TMP DP  RH WIND       PRES   REMARKS
MENA           MOCLDY    68  64  88 CALM      30.09S
MOUNT IDA      MOCLDY    69  66  90 CALM      30.05F
$$

ARZ009-017-025-026-028-010800-
NORTHEAST ARKANSAS

CITY           SKY/WX    TMP DP  RH WIND       PRES   REMARKS
JONESBORO      PTCLDY    74  67  78 NW3       30.04F
NEWPORT        PTCLDY    76  71  84 CALM      30.05F
WALNUT RIDGE   PTCLDY    75  66  73 CALM      30.04F
BLYTHEVILLE    CLEAR     71  69  93 NW5       30.04F
$$

ARZ022-023-033-042-044-010800-
CENTRAL ARKANSAS

CITY           SKY/WX    TMP DP  RH WIND       PRES   REMARKS
LITTLE ROCK    MOCLDY    75  69  81 CALM      30.03F
N LITTLE ROCK    N/A     77  65  64 N3        30.03F
JACKSONVILLE   PTCLDY    71  66  83 CALM      30.03F
SEARCY         PTCLDY    70  68  93 CALM      30.05F
HOT SPRINGS    MOCLDY    74  65  73 CALM      30.05F
RUSSELLVILLE   CLEAR     71  68  90 CALM      30.05F
$$

ARZ036-010800-
EAST ARKANSAS

CITY           SKY/WX    TMP DP  RH WIND       PRES   REMARKS
WEST MEMPHIS   PTCLDY    73  70  90 CALM      30.02F
$$

ARZ050-053-066-070-073-010800-
SOUTHWEST ARKANSAS

CITY           SKY/WX    TMP DP  RH WIND       PRES   REMARKS
ARKADELPHIA    FAIR      68  68 100 CALM      30.04F
CAMDEN         CLEAR     66  64  94 CALM      30.02F
TEXARKANA      PTCLDY    73  65  75 CALM      30.02F
EL DORADO      PTCLDY    70  65  84 CALM      30.02F
DE QUEEN       MOCLDY    69  68  96 NE3       30.02F
$$

ARZ056-057-069-010800-
SOUTHEAST ARKANSAS

CITY           SKY/WX    TMP DP  RH WIND       PRES   REMARKS
PINE BLUFF     PTCLDY    73  67  81 N3        30.02F
STUTTGART      PTCLDY    72  64  78 MISG      30.02F
MONTICELLO     CLEAR     75  67  76 VRB3      30.00F

$$





USA.gov is the U.S. government's official web portal to all federal, state and local government web resources and services.